Elk City, ID

4:07 AM PST on February 25, 2017 (GMT -0800)
Lowell

Weather History for KP69 - May, 2013

Change the Weather History Date:

Friday, May 24, 2013

  Actual Average Record
Temperature  
Mean Temperature 48 °F -  
Max Temperature 57 °F 69 °F 93 °F (2001)
Min Temperature 39 °F 44 °F 39 °F (2005)
Degree Days  
Heating Degree Days 17    
Moisture  
Dew Point 42 °F    
Average Humidity 85    
Maximum Humidity 97    
Minimum Humidity 62    
Precipitation  
Precipitation 0.21 in - - ()
Sea Level Pressure  
Sea Level Pressure 30.04 in    
Wind  
Wind Speed 1 mph (NNW)    
Max Wind Speed 5 mph    
Max Gust Speed -    
Averages and records for this station are not official NWS values.
T = Trace of Precipitation, MM = Missing Value Source: NWS Daily Summary

Daily Weather History Graph

Daily Weather History Graph

Search for Another Location

Airport or City:

Trip Planner

Search our weather history database for the weather conditions in past years. The results will help you decide how hot, cold, wet, or windy it might be!

Date:

Astronomy

May. 24, 2013 Rise Set
Actual Time 6:00 AM MDT 9:17 PM MDT
Civil Twilight 5:24 AM MDT 9:53 PM MDT
Nautical Twilight 4:37 AM MDT 10:40 PM MDT
Astronomical Twilight 3:38 AM MDT 11:40 PM MDT
Moon 9:02 PM MDT (5/24) 5:39 AM MDT (5/24)
Length of Visible Light 16h 29m
Length of Day
15h 16m
Full, 100% of the Moon is Illuminated
May 24
Full
May 24
Full
May 31
Last Quarter
Jun 8
New
Jun 16
First Quarter

Hourly Weather History & Observations

Time (MDT) Temp. Windchill Dew Point Humidity Pressure Visibility Wind Dir Wind Speed Gust Speed Precip Events Conditions
12:52 AM 45.0 °F - 39.9 °F 82% 29.97 in - Calm Calm - N/A   Unknown
1:52 AM 43.0 °F - 39.0 °F 86% 29.97 in - Calm Calm - N/A   Unknown
2:52 AM 42.1 °F - 39.0 °F 89% 29.99 in - Calm Calm - N/A   Unknown
3:52 AM 41.0 °F 39.0 °F 37.9 °F 89% 29.99 in - NW 3.5 mph - N/A   Unknown
4:52 AM 39.9 °F - 37.0 °F 89% 29.99 in - Calm Calm - N/A   Unknown
5:52 AM 39.0 °F - 37.0 °F 93% 30.00 in - Calm Calm - N/A   Unknown
6:52 AM 39.9 °F - 37.0 °F 89% 30.02 in - Calm Calm - N/A   Unknown
7:52 AM 42.1 °F - 37.9 °F 85% 30.01 in - Calm Calm - N/A   Unknown
8:52 AM 45.0 °F 43.5 °F 37.9 °F 76% 30.01 in - North 3.5 mph - N/A   Unknown
9:52 AM 50.0 °F - 39.0 °F 66% 30.00 in - Calm Calm - N/A   Unknown
10:52 AM 51.1 °F - 39.0 °F 63% 30.01 in - Calm Calm - N/A   Unknown
11:52 AM 52.0 °F - 42.1 °F 69% 30.01 in - Calm Calm - 0.01 in   Unknown
12:52 PM 48.9 °F - 45.0 °F 86% 30.04 in - Variable 3.5 mph - 0.02 in   Unknown
1:52 PM 48.0 °F - 45.0 °F 89% 30.07 in - Variable 4.6 mph - 0.07 in   Unknown
2:52 PM 50.0 °F - 44.1 °F 80% 30.09 in - Calm Calm - 0.06 in   Unknown
3:52 PM 57.0 °F - 44.1 °F 62% 30.06 in - Calm Calm - N/A   Unknown
4:52 PM 54.0 °F - 48.0 °F 80% 30.05 in - Calm Calm - N/A   Unknown
5:52 PM 48.9 °F - 46.9 °F 93% 30.09 in - Calm Calm - 0.05 in   Unknown
6:52 PM 48.9 °F - 46.0 °F 90% 30.10 in - Calm Calm - N/A   Unknown
7:52 PM 48.9 °F - 46.9 °F 93% 30.09 in - Calm Calm - N/A   Unknown
8:52 PM 46.0 °F - 44.1 °F 93% 30.10 in - Calm Calm - N/A   Unknown
9:52 PM 45.0 °F - 44.1 °F 97% 30.11 in - Calm Calm - N/A   Unknown
10:52 PM 45.0 °F - 44.1 °F 97% 30.12 in - Calm Calm - N/A   Unknown
11:52 PM 45.0 °F - 44.1 °F 97% 30.11 in - Calm Calm - N/A   Unknown